| time (UTC) | temp F | wind direction | speed MPH | gust MPH | rain 1hr in | rain 24hr in | rain mn in | humidity % | barometer mb |
| 20260902215040 | 95 | 61 | 3.0 | 11.0 | 0.00 | 0.00 | 0.00 | 75 | 1012.3 |
| 20260902214558 | 97 | 65 | 4.0 | 11.0 | 0.00 | 0.00 | 0.00 | 69 | 1012.4 |
| 20260902214040 | 97 | 40 | 5.0 | 11.0 | 0.00 | 0.00 | 0.00 | 68 | 1012.4 |
| 20260902213540 | 97 | 74 | 6.0 | 14.0 | 0.00 | 0.00 | 0.00 | 67 | 1012.4 |
| 20260902213103 | 97 | 360 | 3.0 | 14.0 | 0.00 | 0.00 | 0.00 | 67 | 1012.3 |
| 20260902212541 | 97 | 84 | 6.0 | 14.0 | 0.00 | 0.00 | 0.00 | 67 | 1012.3 |
| 20260902212041 | 97 | 84 | 6.0 | 12.0 | 0.00 | 0.00 | 0.00 | 67 | 1012.4 |
| 20260902211606 | 97 | 91 | 7.0 | 12.0 | 0.00 | 0.00 | 0.00 | 66 | 1012.4 |
| 20260902211039 | 97 | 136 | 6.0 | 14.0 | 0.00 | 0.00 | 0.00 | 66 | 1012.3 |
| 20260902210539 | 97 | 121 | 7.0 | 14.0 | 0.00 | 0.00 | 0.00 | 66 | 1012.5 |
| 20260902210109 | 98 | 47 | 7.0 | 15.0 | 0.00 | 0.00 | 0.00 | 65 | 1012.5 |
| 20260902205535 | 98 | 85 | 8.0 | 15.0 | 0.00 | 0.00 | 0.00 | 65 | 1012.5 |
| 20260902205042 | 98 | 36 | 8.0 | 15.0 | 0.00 | 0.00 | 0.00 | 65 | 1012.5 |
| 20260902204605 | 98 | 15 | 6.0 | 14.0 | 0.00 | 0.00 | 0.00 | 66 | 1012.6 |
| 20260902204039 | 97 | 55 | 6.0 | 14.0 | 0.00 | 0.00 | 0.00 | 66 | 1012.7 |
| 20260902203538 | 97 | 88 | 8.0 | 14.0 | 0.00 | 0.00 | 0.00 | 66 | 1012.7 |
| 20260902203127 | 98 | 132 | 6.0 | 14.0 | 0.00 | 0.00 | 0.00 | 65 | 1012.8 |
| 20260902202542 | 98 | 32 | 6.0 | 14.0 | 0.00 | 0.00 | 0.00 | 64 | 1012.9 |
| 20260902202039 | 98 | 74 | 7.0 | 15.0 | 0.00 | 0.00 | 0.00 | 63 | 1012.9 |
| 20260902201605 | 98 | 65 | 9.0 | 15.0 | 0.00 | 0.00 | 0.00 | 63 | 1013.1 |
| 20260902201036 | 99 | 98 | 7.0 | 15.0 | 0.00 | 0.00 | 0.00 | 64 | 1013.1 |
| 20260902200536 | 98 | 100 | 6.0 | 14.0 | 0.00 | 0.00 | 0.00 | 66 | 1013.1 |
| 20260902200100 | 98 | 101 | 8.0 | 15.0 | 0.00 | 0.00 | 0.00 | 66 | 1013.3 |
| 20260902195538 | 98 | 76 | 4.0 | 15.0 | 0.00 | 0.00 | 0.00 | 67 | 1013.3 |
| 20260902195036 | 98 | 90 | 8.0 | 17.0 | 0.00 | 0.00 | 0.00 | 67 | 1013.5 |
| 20260902194555 | 97 | 44 | 5.0 | 17.0 | 0.00 | 0.00 | 0.00 | 68 | 1013.5 |
| 20260902194039 | 98 | 60 | 6.0 | 17.0 | 0.00 | 0.00 | 0.00 | 68 | 1013.5 |
| 20260902193536 | 97 | 90 | 6.0 | 15.0 | 0.00 | 0.00 | 0.00 | 69 | 1013.5 |
| 20260902193101 | 97 | 80 | 8.0 | 15.0 | 0.00 | 0.00 | 0.00 | 69 | 1013.5 |
| 20260902192538 | 98 | 80 | 6.0 | 14.0 | 0.00 | 0.00 | 0.00 | 67 | 1013.7 |
| 20260902192043 | 97 | 79 | 8.0 | 14.0 | 0.00 | 0.00 | 0.00 | 68 | 1013.6 |
| 20260902191559 | 97 | 59 | 4.0 | 17.0 | 0.00 | 0.00 | 0.00 | 70 | 1013.8 |
| 20260902191039 | 96 | 90 | 8.0 | 17.0 | 0.00 | 0.00 | 0.00 | 71 | 1013.9 |
| 20260902190539 | 96 | 57 | 5.0 | 12.0 | 0.00 | 0.00 | 0.00 | 71 | 1014.0 |
| 20260902190059 | 96 | 69 | 7.0 | 12.0 | 0.00 | 0.00 | 0.00 | 71 | 1014.1 |
| 20260902185539 | 97 | 127 | 5.0 | 14.0 | 0.00 | 0.00 | 0.00 | 71 | 1014.1 |
| 20260902185035 | 96 | 85 | 5.0 | 14.0 | 0.00 | 0.00 | 0.00 | 72 | 1014.1 |
| 20260902184605 | 96 | 91 | 7.0 | 13.0 | 0.00 | 0.00 | 0.00 | 71 | 1014.2 |
| 20260902184036 | 96 | 92 | 7.0 | 11.0 | 0.00 | 0.00 | 0.00 | 73 | 1014.3 |
| 20260902183540 | 96 | 76 | 3.0 | 11.0 | 0.00 | 0.00 | 0.00 | 73 | 1014.4 |
| 20260902183125 | 95 | 83 | 6.0 | 11.0 | 0.00 | 0.00 | 0.00 | 74 | 1014.5 |
| 20260902182539 | 95 | 63 | 6.0 | 11.0 | 0.00 | 0.00 | 0.00 | 74 | 1014.5 |
| 20260902182044 | 95 | 78 | 5.0 | 10.0 | 0.00 | 0.00 | 0.00 | 74 | 1014.6 |
| 20260902181600 | 95 | 29 | 4.0 | 9.0 | 0.00 | 0.00 | 0.00 | 73 | 1014.5 |
| 20260902181038 | 96 | 61 | 2.0 | 9.0 | 0.00 | 0.00 | 0.00 | 73 | 1014.7 |
| 20260902180539 | 96 | 0 | 3.0 | 9.0 | 0.00 | 0.00 | 0.00 | 73 | 1014.7 |
| 20260902180056 | 95 | 75 | 2.0 | 8.0 | 0.00 | 0.00 | 0.00 | 73 | 1014.9 |
| 20260902175543 | 95 | 163 | 2.0 | 11.0 | 0.00 | 0.00 | 0.00 | 73 | 1014.9 |
| 20260902175041 | 94 | 194 | 3.0 | 11.0 | 0.00 | 0.00 | 0.00 | 74 | 1014.9 |
| 20260902174559 | 95 | 103 | 2.0 | 10.0 | 0.00 | 0.00 | 0.00 | 73 | 1015.0 |
| 20260902174042 | 94 | 330 | 4.0 | 10.0 | 0.00 | 0.00 | 0.00 | 74 | 1015.1 |
| 20260902173541 | 94 | 107 | 4.0 | 10.0 | 0.00 | 0.00 | 0.00 | 73 | 1015.1 |
| 20260902173100 | 93 | 181 | 4.0 | 10.0 | 0.00 | 0.00 | 0.00 | 75 | 1015.2 |
| 20260902172542 | 93 | 104 | 5.0 | 10.0 | 0.00 | 0.00 | 0.00 | 74 | 1015.3 |
| 20260902172046 | 93 | 105 | 2.0 | 10.0 | 0.00 | 0.00 | 0.00 | 74 | 1015.3 |
| 20260902171610 | 93 | 116 | 3.0 | 12.0 | 0.00 | 0.00 | 0.00 | 74 | 1015.4 |
| 20260902171040 | 93 | 102 | 5.0 | 12.0 | 0.00 | 0.00 | 0.00 | 74 | 1015.4 |
| 20260902170541 | 93 | 82 | 4.0 | 9.0 | 0.00 | 0.00 | 0.00 | 73 | 1015.4 |
| 20260902170107 | 93 | 74 | 3.0 | 11.0 | 0.00 | 0.00 | 0.00 | 74 | 1015.4 |
| 20260902165540 | 93 | 34 | 5.0 | 11.0 | 0.00 | 0.00 | 0.00 | 74 | 1015.4 |
| 20260902165040 | 93 | 67 | 1.0 | 7.0 | 0.00 | 0.00 | 0.00 | 75 | 1015.4 |
| 20260902164601 | 92 | 321 | 3.0 | 8.0 | 0.00 | 0.00 | 0.00 | 76 | 1015.3 |
| 20260902164041 | 92 | 126 | 4.0 | 8.0 | 0.00 | 0.00 | 0.00 | 74 | 1015.6 |
| 20260902163540 | 91 | 111 | 2.0 | 8.0 | 0.00 | 0.00 | 0.00 | 75 | 1015.7 |
| 20260902163123 | 90 | 0 | 2.0 | 8.0 | 0.00 | 0.00 | 0.00 | 76 | 1015.8 |
| 20260902162540 | 90 | 0 | 2.0 | 8.0 | 0.00 | 0.00 | 0.00 | 76 | 1015.8 |
| 20260902162040 | 90 | 80 | 2.0 | 6.0 | 0.00 | 0.00 | 0.00 | 76 | 1015.8 |
| 20260902161607 | 89 | 0 | 1.0 | 8.0 | 0.00 | 0.00 | 0.00 | 76 | 1015.9 |
| 20260902161041 | 90 | 117 | 2.0 | 8.0 | 0.00 | 0.00 | 0.00 | 76 | 1015.9 |
| 20260902160539 | 89 | 43 | 1.0 | 7.0 | 0.00 | 0.00 | 0.00 | 76 | 1015.8 |
| 20260902155539 | 89 | 0 | 2.0 | 7.0 | 0.00 | 0.00 | 0.00 | 76 | 1015.8 |
| 20260902155041 | 89 | 90 | 2.0 | 7.0 | 0.00 | 0.00 | 0.00 | 77 | 1015.8 |
| 20260902154600 | 89 | 53 | 2.0 | 7.0 | 0.00 | 0.00 | 0.00 | 78 | 1015.9 |
| 20260902154041 | 88 | 120 | 0.0 | 7.0 | 0.00 | 0.00 | 0.00 | 78 | 1015.9 |
| 20260902153542 | 88 | 105 | 1.0 | 7.0 | 0.00 | 0.00 | 0.00 | 78 | 1016.0 |
| 20260902153104 | 88 | 94 | 2.0 | 4.0 | 0.00 | 0.00 | 0.00 | 78 | 1016.0 |
| 20260902152541 | 87 | 202 | 1.0 | 4.0 | 0.00 | 0.00 | 0.00 | 79 | 1016.0 |
| 20260902152040 | 87 | 114 | 1.0 | 4.0 | 0.00 | 0.00 | 0.00 | 79 | 1016.1 |
| 20260902151604 | 86 | 277 | 0.0 | 3.0 | 0.00 | 0.00 | 0.00 | 80 | 1016.1 |
| 20260902151044 | 86 | 305 | 2.0 | 3.0 | 0.00 | 0.00 | 0.00 | 80 | 1016.1 |
| 20260902150541 | 85 | 0 | 0.0 | 4.0 | 0.00 | 0.00 | 0.00 | 81 | 1016.0 |
| 20260902150106 | 84 | 0 | 0.0 | 4.0 | 0.00 | 0.00 | 0.00 | 82 | 1016.0 |
| 20260902145540 | 84 | 230 | 0.0 | 5.0 | 0.00 | 0.00 | 0.00 | 82 | 1016.0 |
| 20260902145040 | 83 | 188 | 0.0 | 5.0 | 0.00 | 0.00 | 0.00 | 83 | 1016.1 |
| 20260902144603 | 83 | 186 | 1.0 | 6.0 | 0.00 | 0.00 | 0.00 | 83 | 1016.1 |
| 20260902144041 | 83 | 183 | 0.0 | 7.0 | 0.00 | 0.00 | 0.00 | 84 | 1016.2 |
| 20260902143545 | 83 | 206 | 2.0 | 7.0 | 0.00 | 0.00 | 0.00 | 83 | 1016.3 |
| 20260902143056 | 83 | 126 | 3.0 | 9.0 | 0.00 | 0.00 | 0.00 | 83 | 1016.4 |
| 20260902142544 | 83 | 186 | 4.0 | 9.0 | 0.00 | 0.00 | 0.00 | 83 | 1016.4 |
| 20260902142041 | 83 | 152 | 3.0 | 6.0 | 0.00 | 0.00 | 0.00 | 83 | 1016.2 |
| 20260902141555 | 83 | 189 | 2.0 | 5.0 | 0.00 | 0.00 | 0.00 | 83 | 1016.1 |
| 20260902141039 | 82 | 0 | 1.0 | 4.0 | 0.00 | 0.00 | 0.00 | 83 | 1015.9 |
| 20260902140541 | 82 | 0 | 0.0 | 4.0 | 0.00 | 0.00 | 0.00 | 84 | 1015.8 |
| 20260902140109 | 82 | 0 | 0.0 | 3.0 | 0.00 | 0.00 | 0.00 | 84 | 1015.8 |
| 20260902135541 | 81 | 266 | 0.0 | 3.0 | 0.00 | 0.00 | 0.00 | 84 | 1015.8 |
| 20260902135041 | 81 | 261 | 1.0 | 3.0 | 0.00 | 0.00 | 0.00 | 85 | 1015.7 |
| 20260902134601 | 81 | 0 | 1.0 | 3.0 | 0.00 | 0.00 | 0.00 | 85 | 1015.6 |
| 20260902134039 | 80 | 0 | 0.0 | 3.0 | 0.00 | 0.00 | 0.00 | 85 | 1015.6 |
| 20260902133542 | 80 | 0 | 0.0 | 2.0 | 0.00 | 0.00 | 0.00 | 86 | 1015.6 |
| 20260902133107 | 80 | 113 | 0.0 | 3.0 | 0.00 | 0.00 | 0.00 | 87 | 1015.7 |
| 20260902132540 | 80 | 0 | 0.0 | 6.0 | 0.00 | 0.00 | 0.00 | 87 | 1015.7 |
| 20260902132040 | 80 | 135 | 2.0 | 6.0 | 0.00 | 0.00 | 0.00 | 86 | 1015.7 |
| 20260902131601 | 80 | 105 | 2.0 | 4.0 | 0.00 | 0.00 | 0.00 | 86 | 1015.5 |
| 20260902131042 | 80 | 100 | 1.0 | 4.0 | 0.00 | 0.00 | 0.00 | 86 | 1015.4 |
| 20260902130541 | 79 | 0 | 0.0 | 4.0 | 0.00 | 0.00 | 0.00 | 86 | 1015.4 |
| 20260902130100 | 79 | 0 | 1.0 | 4.0 | 0.00 | 0.00 | 0.00 | 87 | 1015.4 |
| 20260902125540 | 79 | 46 | 0.0 | 4.0 | 0.00 | 0.00 | 0.00 | 87 | 1015.3 |
| 20260902125042 | 79 | 0 | 0.0 | 4.0 | 0.00 | 0.00 | 0.00 | 87 | 1015.4 |
| 20260902124559 | 78 | 0 | 0.0 | 0.0 | 0.00 | 0.00 | 0.00 | 87 | 1015.3 |
| 20260902124040 | 78 | 0 | 0.0 | 0.0 | 0.00 | 0.00 | 0.00 | 88 | 1015.3 |
| 20260902123543 | 78 | 0 | 0.0 | 0.0 | 0.00 | 0.00 | 0.00 | 89 | 1015.3 |
| 20260902123115 | 77 | 0 | 0.0 | 0.0 | 0.00 | 0.00 | 0.00 | 89 | 1015.3 |
| 20260902122540 | 77 | 0 | 0.0 | 0.0 | 0.00 | 0.00 | 0.00 | 90 | 1015.3 |
| 20260902122041 | 77 | 0 | 0.0 | 0.0 | 0.00 | 0.00 | 0.00 | 90 | 1015.3 |
| 20260902121600 | 77 | 0 | 0.0 | 1.0 | 0.00 | 0.00 | 0.00 | 90 | 1015.3 |
| 20260902121041 | 77 | 0 | 0.0 | 2.0 | 0.00 | 0.00 | 0.00 | 90 | 1015.3 |
| 20260902120539 | 77 | 0 | 0.0 | 3.0 | 0.00 | 0.00 | 0.00 | 90 | 1015.1 |
| 20260902120112 | 77 | 192 | 0.0 | 4.0 | 0.00 | 0.00 | 0.00 | 90 | 1015.1 |
| 20260902115544 | 77 | 0 | 1.0 | 4.0 | 0.00 | 0.00 | 0.00 | 90 | 1014.9 |
| 20260902115040 | 77 | 165 | 1.0 | 4.0 | 0.00 | 0.00 | 0.00 | 90 | 1014.8 |
| 20260902114600 | 77 | 86 | 2.0 | 6.0 | 0.00 | 0.00 | 0.00 | 89 | 1014.7 |
| 20260902114044 | 77 | 108 | 1.0 | 8.0 | 0.00 | 0.00 | 0.00 | 89 | 1014.5 |
| 20260902113540 | 77 | 0 | 3.0 | 8.0 | 0.00 | 0.00 | 0.00 | 89 | 1014.5 |
| 20260902113054 | 77 | 64 | 3.0 | 7.0 | 0.00 | 0.00 | 0.00 | 89 | 1014.4 |
| 20260902112539 | 78 | 74 | 3.0 | 7.0 | 0.00 | 0.00 | 0.00 | 89 | 1014.1 |
| 20260902112040 | 78 | 39 | 1.0 | 9.0 | 0.00 | 0.00 | 0.00 | 90 | 1013.9 |
| 20260902111602 | 78 | 0 | 1.0 | 9.0 | 0.00 | 0.00 | 0.00 | 90 | 1014.1 |
| 20260902111040 | 78 | 79 | 4.0 | 9.0 | 0.00 | 0.00 | 0.00 | 90 | 1014.1 |
| 20260902110540 | 77 | 99 | 0.0 | 4.0 | 0.00 | 0.00 | 0.00 | 90 | 1014.1 |
| 20260902110100 | 77 | 170 | 1.0 | 4.0 | 0.00 | 0.00 | 0.00 | 90 | 1013.9 |
| 20260902105539 | 77 | 117 | 1.0 | 4.0 | 0.00 | 0.00 | 0.00 | 91 | 1013.8 |
| 20260902105042 | 77 | 0 | 1.0 | 5.0 | 0.00 | 0.00 | 0.00 | 91 | 1013.7 |
| 20260902104557 | 77 | 0 | 1.0 | 5.0 | 0.00 | 0.00 | 0.00 | 91 | 1013.7 |
| 20260902104040 | 77 | 193 | 1.0 | 7.0 | 0.00 | 0.00 | 0.00 | 91 | 1013.9 |
| 20260902103540 | 77 | 100 | 3.0 | 9.0 | 0.00 | 0.00 | 0.00 | 91 | 1014.0 |
| 20260902103107 | 77 | 80 | 3.0 | 9.0 | 0.00 | 0.00 | 0.00 | 90 | 1013.9 |
| 20260902102540 | 78 | 69 | 3.0 | 9.0 | 0.00 | 0.00 | 0.00 | 90 | 1014.0 |
| 20260902102041 | 78 | 93 | 3.0 | 9.0 | 0.00 | 0.00 | 0.00 | 90 | 1013.9 |
| 20260902101558 | 78 | 97 | 4.0 | 9.0 | 0.00 | 0.00 | 0.00 | 89 | 1013.9 |
| 20260902101040 | 78 | 98 | 2.0 | 9.0 | 0.00 | 0.00 | 0.00 | 89 | 1014.1 |
| 20260902100540 | 78 | 84 | 4.0 | 9.0 | 0.00 | 0.00 | 0.00 | 89 | 1014.1 |
| 20260902100106 | 79 | 87 | 4.0 | 9.0 | 0.00 | 0.00 | 0.00 | 88 | 1014.1 |
| 20260902095541 | 79 | 111 | 5.0 | 9.0 | 0.00 | 0.00 | 0.00 | 88 | 1014.1 |
| 20260902095039 | 79 | 115 | 2.0 | 9.0 | 0.00 | 0.00 | 0.00 | 88 | 1014.0 |
| 20260902094557 | 79 | 77 | 3.0 | 9.0 | 0.00 | 0.00 | 0.00 | 88 | 1013.8 |
| 20260902094039 | 80 | 329 | 2.0 | 9.0 | 0.00 | 0.00 | 0.00 | 88 | 1013.8 |
| 20260902093541 | 80 | 0 | 2.0 | 9.0 | 0.00 | 0.00 | 0.00 | 89 | 1013.9 |
| 20260902093103 | 80 | 24 | 3.0 | 9.0 | 0.00 | 0.00 | 0.00 | 89 | 1014.1 |
| 20260902092544 | 80 | 13 | 4.0 | 9.0 | 0.00 | 0.00 | 0.00 | 89 | 1014.2 |
| 20260902092040 | 80 | 38 | 3.0 | 7.0 | 0.00 | 0.00 | 0.00 | 88 | 1014.2 |
| 20260902091557 | 80 | 78 | 0.0 | 3.0 | 0.00 | 0.00 | 0.00 | 89 | 1014.4 |
| 20260902091040 | 80 | 0 | 0.0 | 3.0 | 0.00 | 0.00 | 0.00 | 89 | 1014.3 |
| 20260902090542 | 80 | 55 | 0.0 | 3.0 | 0.00 | 0.00 | 0.00 | 89 | 1014.4 |
| 20260902090058 | 80 | 0 | 0.0 | 4.0 | 0.00 | 0.00 | 0.00 | 89 | 1014.5 |
| 20260902085540 | 80 | 69 | 0.0 | 4.0 | 0.00 | 0.00 | 0.00 | 89 | 1014.5 |
| 20260902085039 | 80 | 0 | 1.0 | 4.0 | 0.00 | 0.00 | 0.00 | 89 | 1014.6 |
| 20260902084603 | 80 | 0 | 0.0 | 4.0 | 0.00 | 0.00 | 0.00 | 89 | 1014.5 |
| 20260902084043 | 80 | 96 | 1.0 | 6.0 | 0.00 | 0.00 | 0.00 | 89 | 1014.7 |
| 20260902083539 | 80 | 86 | 2.0 | 10.0 | 0.00 | 0.00 | 0.00 | 89 | 1014.9 |
| 20260902083121 | 80 | 44 | 4.0 | 10.0 | 0.00 | 0.00 | 0.00 | 89 | 1015.0 |
| 20260902082541 | 81 | 59 | 3.0 | 6.0 | 0.00 | 0.00 | 0.00 | 90 | 1015.1 |
| 20260902082041 | 81 | 67 | 2.0 | 6.0 | 0.00 | 0.00 | 0.00 | 91 | 1015.1 |
| 20260902081603 | 81 | 61 | 2.0 | 6.0 | 0.00 | 0.00 | 0.00 | 91 | 1015.0 |
| 20260902081041 | 81 | 84 | 0.0 | 3.0 | 0.00 | 0.00 | 0.00 | 92 | 1015.2 |
| 20260902080541 | 81 | 0 | 0.0 | 4.0 | 0.00 | 0.00 | 0.00 | 92 | 1015.1 |
| 20260902080057 | 81 | 0 | 1.0 | 6.0 | 0.00 | 0.00 | 0.00 | 92 | 1015.1 |
| 20260902075541 | 81 | 103 | 2.0 | 7.0 | 0.00 | 0.00 | 0.00 | 92 | 1015.2 |
| 20260902075041 | 81 | 122 | 2.0 | 7.0 | 0.00 | 0.00 | 0.00 | 92 | 1015.0 |
| 20260902074613 | 81 | 85 | 2.0 | 7.0 | 0.00 | 0.00 | 0.00 | 92 | 1015.1 |
| 20260902074041 | 82 | 110 | 4.0 | 7.0 | 0.00 | 0.00 | 0.00 | 92 | 1015.2 |
| 20260902073540 | 82 | 115 | 2.0 | 7.0 | 0.00 | 0.00 | 0.00 | 92 | 1015.4 |
| 20260902073101 | 82 | 120 | 3.0 | 7.0 | 0.00 | 0.00 | 0.00 | 92 | 1015.4 |
| 20260902072542 | 82 | 144 | 4.0 | 8.0 | 0.00 | 0.00 | 0.00 | 92 | 1015.5 |
| 20260902072043 | 82 | 53 | 4.0 | 9.0 | 0.00 | 0.00 | 0.00 | 91 | 1015.3 |
| 20260902071558 | 82 | 113 | 4.0 | 9.0 | 0.00 | 0.00 | 0.00 | 91 | 1015.2 |
| 20260902071041 | 82 | 98 | 2.0 | 8.0 | 0.00 | 0.00 | 0.00 | 91 | 1015.2 |
| 20260902070541 | 82 | 58 | 3.0 | 9.0 | 0.00 | 0.00 | 0.00 | 91 | 1015.2 |
| 20260902065540 | 82 | 111 | 3.0 | 9.0 | 0.00 | 0.00 | 0.00 | 91 | 1015.2 |
| 20260902065040 | 83 | 63 | 5.0 | 9.0 | 0.00 | 0.00 | 0.00 | 91 | 1015.3 |
| 20260902064557 | 83 | 68 | 3.0 | 8.0 | 0.00 | 0.00 | 0.00 | 91 | 1015.3 |
| 20260902064040 | 83 | 107 | 3.0 | 10.0 | 0.00 | 0.00 | 0.00 | 91 | 1015.5 |
| 20260902063540 | 83 | 106 | 1.0 | 10.0 | 0.00 | 0.00 | 0.00 | 91 | 1015.5 |
| 20260902063103 | 83 | 78 | 3.0 | 11.0 | 0.00 | 0.00 | 0.00 | 91 | 1015.8 |
| 20260902062539 | 83 | 115 | 6.0 | 14.0 | 0.00 | 0.00 | 0.00 | 91 | 1016.1 |
| 20260902062038 | 83 | 100 | 6.0 | 19.0 | 0.00 | 0.00 | 0.00 | 91 | 1016.2 |
| 20260902061557 | 83 | 93 | 7.0 | 19.0 | 0.00 | 0.00 | 0.00 | 91 | 1016.3 |
| 20260902061041 | 83 | 110 | 10.0 | 19.0 | 0.00 | 0.00 | 0.00 | 91 | 1016.3 |
| 20260902060540 | 83 | 100 | 6.0 | 15.0 | 0.00 | 0.00 | 0.00 | 91 | 1016.4 |
| 20260902060109 | 83 | 109 | 8.0 | 15.0 | 0.00 | 0.00 | 0.00 | 91 | 1016.6 |
| 20260902055544 | 83 | 105 | 6.0 | 11.0 | 0.00 | 0.00 | 0.00 | 91 | 1016.5 |
| 20260902055041 | 84 | 103 | 4.0 | 9.0 | 0.00 | 0.00 | 0.00 | 92 | 1016.0 |
| 20260902054557 | 84 | 83 | 5.0 | 9.0 | 0.00 | 0.00 | 0.00 | 92 | 1015.8 |
| 20260902054040 | 84 | 350 | 2.0 | 11.0 | 0.00 | 0.00 | 0.00 | 91 | 1015.7 |
| 20260902053540 | 84 | 66 | 3.0 | 11.0 | 0.00 | 0.00 | 0.00 | 91 | 1015.6 |
| 20260902053056 | 84 | 82 | 5.0 | 11.0 | 0.00 | 0.00 | 0.00 | 91 | 1015.6 |
| 20260902052541 | 84 | 90 | 6.0 | 11.0 | 0.00 | 0.00 | 0.00 | 91 | 1015.5 |
| 20260902052040 | 84 | 82 | 4.0 | 10.0 | 0.00 | 0.00 | 0.00 | 90 | 1015.6 |
| 20260902051605 | 84 | 138 | 4.0 | 9.0 | 0.00 | 0.00 | 0.00 | 90 | 1015.5 |
| 20260902051042 | 84 | 101 | 3.0 | 7.0 | 0.00 | 0.00 | 0.00 | 90 | 1015.5 |
| 20260902050541 | 84 | 75 | 3.0 | 10.0 | 0.00 | 0.00 | 0.00 | 90 | 1015.5 |
| 20260902050104 | 84 | 45 | 2.0 | 10.0 | 0.00 | 0.00 | 0.00 | 90 | 1015.5 |
| 20260902045540 | 84 | 30 | 5.0 | 10.0 | 0.00 | 0.00 | 0.00 | 90 | 1015.6 |
| 20260902045040 | 84 | 60 | 4.0 | 10.0 | 0.00 | 0.00 | 0.00 | 90 | 1015.5 |
| 20260902044557 | 84 | 55 | 4.0 | 10.0 | 0.00 | 0.00 | 0.00 | 90 | 1015.6 |
| 20260902044041 | 85 | 55 | 4.0 | 10.0 | 0.00 | 0.00 | 0.00 | 90 | 1015.6 |
| 20260902043540 | 85 | 55 | 3.0 | 10.0 | 0.00 | 0.00 | 0.00 | 90 | 1015.7 |
| 20260902043106 | 85 | 31 | 4.0 | 10.0 | 0.00 | 0.00 | 0.00 | 90 | 1015.6 |
| 20260902042541 | 85 | 81 | 5.0 | 11.0 | 0.00 | 0.00 | 0.00 | 90 | 1015.7 |
| 20260902042041 | 85 | 57 | 5.0 | 11.0 | 0.00 | 0.00 | 0.00 | 89 | 1015.6 |
| 20260902041601 | 85 | 32 | 3.0 | 11.0 | 0.00 | 0.00 | 0.00 | 89 | 1015.6 |
| 20260902041041 | 85 | 51 | 3.0 | 11.0 | 0.00 | 0.00 | 0.00 | 89 | 1015.5 |
| 20260902040540 | 85 | 24 | 3.0 | 11.0 | 0.00 | 0.00 | 0.00 | 89 | 1015.5 |
| 20260902040100 | 85 | 59 | 4.0 | 11.0 | 0.00 | 0.00 | 0.00 | 89 | 1015.6 |
| 20260902035542 | 85 | 107 | 5.0 | 11.0 | 0.00 | 0.00 | 0.00 | 89 | 1015.5 |
| 20260902035037 | 85 | 36 | 6.0 | 12.0 | 0.00 | 0.00 | 0.00 | 88 | 1015.4 |
| 20260902034557 | 86 | 74 | 4.0 | 12.0 | 0.00 | 0.00 | 0.00 | 88 | 1015.3 |
| 20260902034040 | 86 | 9 | 3.0 | 12.0 | 0.00 | 0.00 | 0.00 | 88 | 1015.2 |
| 20260902033540 | 86 | 32 | 6.0 | 12.0 | 0.00 | 0.00 | 0.00 | 88 | 1015.1 |
| 20260902033102 | 86 | 85 | 3.0 | 13.0 | 0.00 | 0.00 | 0.00 | 88 | 1015.0 |
| 20260902032540 | 86 | 16 | 6.0 | 13.0 | 0.00 | 0.00 | 0.00 | 87 | 1015.1 |
| 20260902032040 | 86 | 72 | 5.0 | 13.0 | 0.00 | 0.00 | 0.00 | 87 | 1015.0 |
| 20260902031613 | 86 | 59 | 5.0 | 13.0 | 0.00 | 0.00 | 0.00 | 87 | 1014.9 |
| 20260902031041 | 87 | 55 | 4.0 | 11.0 | 0.00 | 0.00 | 0.00 | 86 | 1014.7 |
| 20260902030537 | 87 | 28 | 5.0 | 11.0 | 0.00 | 0.00 | 0.00 | 86 | 1014.6 |
| 20260902030056 | 87 | 57 | 5.0 | 10.0 | 0.00 | 0.00 | 0.00 | 86 | 1014.5 |
| 20260902025540 | 87 | 46 | 3.0 | 12.0 | 0.00 | 0.00 | 0.00 | 85 | 1014.4 |
| 20260902025044 | 87 | 73 | 4.0 | 12.0 | 0.00 | 0.00 | 0.00 | 85 | 1014.3 |
| 20260902024559 | 87 | 78 | 4.0 | 12.0 | 0.00 | 0.00 | 0.00 | 85 | 1014.4 |
| 20260902024037 | 88 | 46 | 4.0 | 11.0 | 0.00 | 0.00 | 0.00 | 85 | 1014.3 |
| 20260902023540 | 88 | 86 | 3.0 | 10.0 | 0.00 | 0.00 | 0.00 | 84 | 1014.3 |
| 20260902023105 | 88 | 24 | 4.0 | 8.0 | 0.00 | 0.00 | 0.00 | 83 | 1014.2 |
| 20260902022539 | 88 | 85 | 3.0 | 10.0 | 0.00 | 0.00 | 0.00 | 83 | 1014.2 |
| 20260902022039 | 89 | 50 | 5.0 | 11.0 | 0.00 | 0.00 | 0.00 | 83 | 1014.1 |
| 20260902021612 | 89 | 70 | 4.0 | 11.0 | 0.00 | 0.00 | 0.00 | 82 | 1014.1 |
| 20260902021043 | 89 | 74 | 3.0 | 11.0 | 0.00 | 0.00 | 0.00 | 82 | 1014.1 |
| 20260902020541 | 89 | 88 | 5.0 | 10.0 | 0.00 | 0.00 | 0.00 | 81 | 1014.0 |
| 20260902020117 | 90 | 67 | 4.0 | 10.0 | 0.00 | 0.00 | 0.00 | 81 | 1013.9 |
| 20260902015543 | 90 | 50 | 4.0 | 10.0 | 0.00 | 0.00 | 0.00 | 81 | 1013.7 |
| 20260902015040 | 90 | 79 | 3.0 | 10.0 | 0.00 | 0.00 | 0.00 | 81 | 1013.7 |
| 20260902014600 | 90 | 78 | 3.0 | 11.0 | 0.00 | 0.00 | 0.00 | 81 | 1013.6 |
| 20260902014040 | 90 | 84 | 5.0 | 11.0 | 0.00 | 0.00 | 0.00 | 80 | 1013.6 |
| 20260902013538 | 90 | 92 | 4.0 | 11.0 | 0.00 | 0.00 | 0.00 | 80 | 1013.5 |
| 20260902013102 | 90 | 67 | 5.0 | 11.0 | 0.00 | 0.00 | 0.00 | 80 | 1013.4 |
| 20260902012540 | 91 | 73 | 5.0 | 11.0 | 0.00 | 0.00 | 0.00 | 80 | 1013.2 |
| 20260902012040 | 91 | 44 | 4.0 | 10.0 | 0.00 | 0.00 | 0.00 | 80 | 1013.2 |
| 20260902011557 | 91 | 38 | 6.0 | 13.0 | 0.00 | 0.00 | 0.00 | 79 | 1013.0 |
| 20260902011040 | 92 | 39 | 5.0 | 13.0 | 0.00 | 0.00 | 0.00 | 79 | 1013.0 |
| 20260902010541 | 92 | 59 | 4.0 | 12.0 | 0.00 | 0.00 | 0.00 | 79 | 1013.0 |
| 20260902010054 | 92 | 30 | 5.0 | 12.0 | 0.00 | 0.00 | 0.00 | 79 | 1013.0 |
| 20260902005539 | 92 | 94 | 3.0 | 9.0 | 0.00 | 0.00 | 0.00 | 79 | 1012.9 |
| 20260902005040 | 92 | 86 | 3.0 | 9.0 | 0.00 | 0.00 | 0.00 | 79 | 1013.0 |
| 20260902004605 | 92 | 85 | 2.0 | 8.0 | 0.00 | 0.00 | 0.00 | 78 | 1012.8 |
| 20260902004041 | 92 | 74 | 3.0 | 8.0 | 0.00 | 0.00 | 0.00 | 78 | 1012.7 |
| 20260902003540 | 92 | 59 | 1.0 | 9.0 | 0.00 | 0.00 | 0.00 | 79 | 1012.6 |
| 20260902003108 | 92 | 0 | 2.0 | 9.0 | 0.00 | 0.00 | 0.00 | 80 | 1012.5 |
| 20260902002539 | 93 | 352 | 1.0 | 9.0 | 0.00 | 0.00 | 0.00 | 80 | 1012.4 |
| 20260902002040 | 93 | 0 | 1.0 | 9.0 | 0.00 | 0.00 | 0.00 | 81 | 1012.4 |
| 20260902001559 | 93 | 137 | 4.0 | 9.0 | 0.00 | 0.00 | 0.00 | 80 | 1012.3 |
| 20260902001040 | 93 | 355 | 5.0 | 10.0 | 0.00 | 0.00 | 0.00 | 80 | 1012.3 |
| 20260902000541 | 93 | 307 | 1.0 | 10.0 | 0.00 | 0.00 | 0.00 | 79 | 1012.3 |
| 20260902000057 | 94 | 51 | 4.0 | 10.0 | 0.00 | 0.00 | 0.00 | 79 | 1012.2 |
| 20260901235541 | 94 | 97 | 3.0 | 11.0 | 0.00 | 0.00 | 0.00 | 79 | 1012.1 |
| 20260901235040 | 94 | 320 | 6.0 | 11.0 | 0.00 | 0.00 | 0.00 | 78 | 1012.1 |
| 20260901234602 | 95 | 26 | 5.0 | 10.0 | 0.00 | 0.00 | 0.00 | 77 | 1012.0 |
| 20260901234043 | 95 | 5 | 3.0 | 8.0 | 0.00 | 0.00 | 0.00 | 77 | 1011.9 |
| 20260901233540 | 96 | 352 | 4.0 | 11.0 | 0.00 | 0.00 | 0.00 | 76 | 1011.9 |
| 20260901233104 | 97 | 62 | 2.0 | 11.0 | 0.00 | 0.00 | 0.00 | 74 | 1011.9 |
| 20260901232540 | 97 | 46 | 6.0 | 11.0 | 0.00 | 0.00 | 0.00 | 68 | 1011.8 |
| 20260901232040 | 97 | 38 | 5.0 | 10.0 | 0.00 | 0.00 | 0.00 | 68 | 1011.8 |
| 20260901231601 | 98 | 93 | 5.0 | 10.0 | 0.00 | 0.00 | 0.00 | 67 | 1011.8 |
| 20260901231039 | 98 | 118 | 5.0 | 12.0 | 0.00 | 0.00 | 0.00 | 67 | 1011.7 |
| 20260901230541 | 98 | 0 | 3.0 | 13.0 | 0.00 | 0.00 | 0.00 | 67 | 1011.7 |
| 20260901230105 | 98 | 84 | 6.0 | 14.0 | 0.00 | 0.00 | 0.00 | 67 | 1011.7 |
| 20260901225541 | 98 | 82 | 7.0 | 14.0 | 0.00 | 0.00 | 0.00 | 66 | 1011.6 |
| 20260901225040 | 98 | 117 | 6.0 | 12.0 | 0.00 | 0.00 | 0.00 | 66 | 1011.8 |
| 20260901224556 | 98 | 53 | 4.0 | 12.0 | 0.00 | 0.00 | 0.00 | 67 | 1011.7 |
| 20260901224040 | 98 | 66 | 5.0 | 12.0 | 0.00 | 0.00 | 0.00 | 67 | 1011.7 |
| 20260901223540 | 98 | 80 | 7.0 | 16.0 | 0.00 | 0.00 | 0.00 | 66 | 1011.8 |
| 20260901223108 | 98 | 48 | 6.0 | 16.0 | 0.00 | 0.00 | 0.00 | 66 | 1011.9 |
| 20260901222538 | 98 | 17 | 6.0 | 13.0 | 0.00 | 0.00 | 0.00 | 66 | 1011.9 |
| 20260901222041 | 98 | 71 | 6.0 | 13.0 | 0.00 | 0.00 | 0.00 | 67 | 1011.9 |
| 20260901221558 | 98 | 53 | 7.0 | 13.0 | 0.00 | 0.00 | 0.00 | 67 | 1012.0 |
| 20260901221040 | 99 | 109 | 6.0 | 13.0 | 0.00 | 0.00 | 0.00 | 66 | 1012.0 |
| 20260901220540 | 98 | 51 | 6.0 | 13.0 | 0.00 | 0.00 | 0.00 | 68 | 1012.0 |
| 20260901220125 | 98 | 82 | 7.0 | 13.0 | 0.00 | 0.00 | 0.00 | 68 | 1011.9 |
| 20260901215540 | 98 | 44 | 5.0 | 13.0 | 0.00 | 0.00 | 0.00 | 68 | 1012.0 |